Terminal Aerodrome Forecast
Issued by NWS Flagstaff, AZ

Home | Current Version | Previous Version | Text Only | Print | Product List | Glossary On
Versions: 1 2 3 4 5 6 7 8 9 10 11 12 13 14 15 16 17 18 19 20 21 22 23 24 25 26 27 28 29 30 31 32 33 34
000
FTUS45 KFGZ 230013 AAA
TAFINW
TAF AMD
KINW 230013Z 2300/2324 10024G33KT P6SM FEW070 BKN090
     FM230200 VRB05KT P6SM FEW070 BKN150
     FM231800 01007KT P6SM BKN070=

USA.gov is the U.S. government's official web portal to all federal, state and local government web resources and services.